Погода в Майкаине

Казахстан     51°27′31″N   75°47′46″E
темп.,
°C
ветер,
м/с
пор.,
м/с
влажн.,
%
обл.,
%
осадки,
мм/ч
давл.,
гПа
погр.,
м
14 августа, вс
вс1400:00+21з5951100 0.0 1012270
03:00+19зюз59564 0.0 1011178
06:00+18зюз58637 0.0 1011150
09:00+22зсз6950100 0.0 1012750
12:00+22зсз675423 0.0 1013973
15:00+24сз78399 0.0 10131851
18:00+23сз88330 0.0 10132014
21:00+19ссз510440 0.0 1014284
15 августа, пн
пн1500:00+17ссз35493 0.0 101498
03:00+15ссз47550 0.0 1015159
06:00+13с34641 0.0 101687
09:00+16ссз45495 0.0 1017662
12:00+19ссз564141 0.0 10171793
15:00+21ссз67345 0.0 10162277
18:00+21ссз773337 0.0 10152297
21:00+16с610500 0.0 1017614
16 августа, вт
вт1600:00+15ссз33560 0.0 101874
03:00+13ссз36600 0.0 1018145
06:00+12с33625 0.0 101959
09:00+15ссз234513 0.0 1019574
12:00+18сз563663 0.0 10182013
15:00+19сз673489 0.0 10172477
18:00+19ссз683330 0.0 10172225
21:00+16с344310 0.0 101764
17 августа, ср
ср1700:00+16ссв2447100 0.0 1017178
03:00+15ю224910 0.0 101563
06:00+13зюз47543 0.0 1014125
09:00+14зсз51060100 0.1 1015697
12:00+18сз101144100 0.6 10142211
15:00+18ссз9113858 0.0 10152096
18:00+18сз8103063 0.0 10152612
21:00+14св585158 0.0 1016397
18 августа, чт
чт1800:00+12с2356100 0.0 101768
03:00+11сз336299 0.0 101665
06:00+10сз356943 0.0 1017125
09:00+13сз56495 0.0 10171047
12:00+15сз554098 0.0 10172180
15:00+15ссз4538100 0.0 10161813
18:00+15с443813 0.0 10161886
21:00+13св224535 0.0 101714